Middlebury State AP, Middlebu, VT

12:40 PM EST on December 12, 2019 (GMT -0500)
Middlebury State AP, Middlebu

Weather History for K6B0 - November, 2019

Change the Weather History Date:

Friday, November 15, 2019

  Actual Average (KRUT) Record (KRUT)
Temperature  
Mean Temperature 30 °F -  
Max Temperature 37 °F - 74 °F (1956)
Min Temperature 23 °F - 12 °F (1996)
Degree Days  
Heating Degree Days 34    
Month to date heating degree days  
Since 1 July heating degree days  
Cooling Degree Days 0    
Month to date cooling degree days  
Year to date cooling degree days  
Moisture  
Dew Point 21 °F    
Average Humidity 60    
Maximum Humidity 87    
Minimum Humidity 43    
Precipitation  
Precipitation 0.00 in - 0.93 in (2007)
Month to date precipitation 0.00  
Year to date precipitation T  
Sea Level Pressure  
Sea Level Pressure 30.12 in    
Wind  
Wind Speed 8 mph ()    
Max Wind Speed 24 mph    
Max Gust Speed 36 mph    
Visibility 9.8 miles    
Events Snow    
T = Trace of Precipitation, MM = Missing Value Source: Averaged Metar Reports

Daily Weather History Graph

Daily Weather History Graph

Search for Another Location

Airport or City:

Astronomy

Nov. 15, 2019 Rise Set
Actual Time 6:46 AM EST 4:26 PM EST
Civil Twilight 6:15 AM EST 4:57 PM EST
Nautical Twilight 5:40 AM EST 5:32 PM EST
Astronomical Twilight 5:06 AM EST 6:06 PM EST
Moon 6:55 PM EST (11/15) 9:44 AM EST (11/15)
Length of Visible Light 10h 41m
Length of Day
9h 39m
Waning Gibbous, 90% of the Moon is Illuminated
Nov 15
Waning Gibbous
Nov 19
Last Quarter
Nov 26
New
Dec 4
First Quarter
Dec 12
Full

Hourly Weather History & Observations

Time (EST) Temp. Windchill Dew Point Humidity Pressure Visibility Wind Dir Wind Speed Gust Speed Precip Events Conditions
12:15 AM 32.7 °F 26.4 °F 19.0 °F 57% 30.17 in 10.0 mi South 6.9 mph - N/A   Overcast
12:16 AM 32.9 °F 26.7 °F 18.9 °F 56% 30.17 in 10.0 mi South 6.9 mph - N/A   Overcast
12:35 AM 32.7 °F 27.3 °F 18.9 °F 57% 30.16 in 10.0 mi SSE 5.8 mph - N/A   Overcast
12:36 AM 32.9 °F 26.7 °F 18.9 °F 56% 30.16 in 10.0 mi SSE 6.9 mph - N/A   Overcast
12:58 AM 32.7 °F 26.4 °F 19.0 °F 57% 30.15 in 10.0 mi SSE 6.9 mph - N/A   Overcast
1:17 AM 32.7 °F 27.3 °F 19.4 °F 58% 30.15 in 10.0 mi South 5.8 mph - N/A   Overcast
1:36 AM 32.9 °F 27.5 °F 19.2 °F 57% 30.15 in 10.0 mi SSE 5.8 mph - N/A   Overcast
1:55 AM 32.9 °F 27.5 °F 19.4 °F 58% 30.14 in 10.0 mi South 5.8 mph - N/A   Overcast
1:56 AM 32.9 °F 27.5 °F 19.4 °F 58% 30.14 in 10.0 mi South 5.8 mph - N/A   Overcast
2:15 AM 32.9 °F 26.7 °F 19.4 °F 58% 30.14 in 10.0 mi South 6.9 mph - N/A   Overcast
2:38 AM 32.9 °F 25.9 °F 19.6 °F 58% 30.14 in 10.0 mi South 8.1 mph - N/A   Overcast
2:55 AM 32.9 °F 26.7 °F 19.4 °F 58% 30.13 in 10.0 mi South 6.9 mph - N/A   Overcast
3:15 AM 32.9 °F 27.5 °F 19.6 °F 58% 30.12 in 10.0 mi SSE 5.8 mph - N/A   Overcast
3:16 AM 32.9 °F 26.7 °F 19.6 °F 58% 30.12 in 10.0 mi South 6.9 mph - N/A   Overcast
3:35 AM 32.9 °F 25.9 °F 19.8 °F 59% 30.12 in 10.0 mi South 8.1 mph - N/A   Overcast
3:36 AM 32.9 °F 25.3 °F 19.8 °F 59% 30.12 in 10.0 mi South 9.2 mph - N/A   Overcast
3:58 AM 32.9 °F 24.1 °F 19.8 °F 59% 30.12 in 10.0 mi South 11.5 mph - N/A   Overcast
4:16 AM 32.9 °F 24.1 °F 19.8 °F 59% 30.12 in 10.0 mi South 11.5 mph 16.1 mph N/A   Overcast
4:36 AM 32.9 °F 26.7 °F 19.9 °F 59% 30.11 in 10.0 mi South 6.9 mph - N/A   Overcast
4:55 AM 32.9 °F 25.9 °F 20.3 °F 60% 30.11 in 10.0 mi South 8.1 mph - N/A   Overcast
5:15 AM 33.3 °F 25.7 °F 19.8 °F 58% 30.10 in 10.0 mi South 9.2 mph - N/A   Overcast
5:19 AM 33.4 °F 26.6 °F 19.8 °F 57% 30.10 in 10.0 mi SSE 8.1 mph - N/A   Overcast
5:37 AM 34.0 °F 25.5 °F 19.9 °F 56% 30.09 in 10.0 mi SSE 11.5 mph - N/A   Overcast
5:55 AM 34.2 °F 26.2 °F 20.3 °F 57% 30.09 in 10.0 mi SSE 10.4 mph - N/A   Overcast
6:15 AM 34.3 °F 25.9 °F 20.3 °F 57% 30.09 in 10.0 mi SSE 11.5 mph 18.4 mph N/A   Overcast
6:16 AM 34.5 °F 25.7 °F 20.1 °F 56% 30.09 in 10.0 mi South 12.7 mph 18.4 mph N/A   Overcast
6:35 AM 34.7 °F 26.9 °F 20.3 °F 56% 30.09 in 10.0 mi South 10.4 mph 17.3 mph N/A   Overcast
6:36 AM 34.7 °F 25.9 °F 20.3 °F 56% 30.08 in 10.0 mi South 12.7 mph 17.3 mph N/A   Overcast
6:58 AM 34.7 °F 26.9 °F 20.7 °F 57% 30.09 in 10.0 mi South 10.4 mph 18.4 mph N/A   Overcast
7:16 AM 34.7 °F 25.5 °F 21.0 °F 57% 30.09 in 10.0 mi South 13.8 mph 17.3 mph N/A   Overcast
7:36 AM 34.3 °F 25.0 °F 21.2 °F 59% 30.09 in 10.0 mi South 13.8 mph 20.7 mph N/A   Overcast
7:56 AM 34.7 °F 25.5 °F 21.2 °F 58% 30.09 in 10.0 mi South 13.8 mph 21.9 mph N/A   Overcast
8:36 AM 34.9 °F 27.7 °F 21.4 °F 58% 30.08 in 10.0 mi SSE 9.2 mph 19.6 mph N/A   Overcast
8:56 AM 35.1 °F 26.9 °F 21.7 °F 58% 30.08 in 10.0 mi South 11.5 mph 17.3 mph N/A   Overcast
9:15 AM 35.2 °F 28.8 °F 21.7 °F 58% 30.08 in 10.0 mi South 8.1 mph - N/A   Overcast
9:16 AM 35.2 °F 27.6 °F 21.7 °F 58% 30.08 in 10.0 mi South 10.4 mph - N/A   Overcast
9:35 AM 35.6 °F 28.6 °F 22.1 °F 58% 30.06 in 10.0 mi South 9.2 mph - N/A   Overcast
9:39 AM 35.6 °F 28.0 °F 21.9 °F 58% 30.06 in 10.0 mi South 10.4 mph - N/A   Overcast
9:57 AM 36.1 °F 27.3 °F 22.1 °F 57% 30.05 in 10.0 mi South 13.8 mph 19.6 mph N/A   Overcast
10:15 AM 36.3 °F 29.5 °F 22.8 °F 58% 30.05 in 10.0 mi South 9.2 mph 20.7 mph N/A   Overcast
10:35 AM 36.5 °F 28.7 °F 22.8 °F 58% 30.05 in 10.0 mi SSW 11.5 mph 18.4 mph N/A   Overcast
10:36 AM 36.5 °F 29.2 °F 22.6 °F 57% 30.05 in 10.0 mi SSW 10.4 mph 18.4 mph N/A   Overcast
10:55 AM 36.5 °F 30.3 °F 22.5 °F 57% 30.05 in 10.0 mi SSW 8.1 mph - N/A   Overcast
10:56 AM 36.5 °F 30.3 °F 22.5 °F 57% 30.05 in 10.0 mi SSW 8.1 mph - N/A   Overcast
11:18 AM 36.5 °F 28.7 °F 22.8 °F 58% 30.05 in 10.0 mi South 11.5 mph - N/A   Overcast
11:36 AM 36.5 °F 28.7 °F 23.0 °F 58% 30.05 in 10.0 mi SSW 11.5 mph 17.3 mph N/A   Overcast
11:56 AM 36.5 °F 29.7 °F 23.2 °F 59% 30.05 in 10.0 mi SSW 9.2 mph - N/A   Overcast
12:15 PM 36.5 °F 29.2 °F 23.5 °F 59% 30.04 in 10.0 mi South 10.4 mph - N/A   Overcast
12:16 PM 36.5 °F 29.2 °F 23.5 °F 59% 30.04 in 10.0 mi South 10.4 mph - N/A   Overcast
12:35 PM 36.7 °F 32.0 °F 23.5 °F 59% 30.04 in 10.0 mi South 5.8 mph - N/A   Overcast
12:39 PM 36.5 °F 31.0 °F 23.7 °F 60% 30.04 in 10.0 mi SSW 6.9 mph - N/A   Overcast
12:57 PM 36.5 °F 31.0 °F 24.4 °F 62% 30.04 in 10.0 mi South 6.9 mph - N/A   Overcast
1:15 PM 37.0 °F 33.3 °F 23.9 °F 59% 30.04 in 10.0 mi SSW 4.6 mph - N/A   Overcast
1:35 PM 37.0 °F - 24.6 °F 61% 30.04 in 10.0 mi Calm Calm - N/A   Overcast
1:36 PM 37.0 °F - 24.6 °F 61% 30.04 in 10.0 mi Calm Calm - N/A   Overcast
1:55 PM 37.0 °F - 24.8 °F 61% 30.04 in 10.0 mi Calm Calm - N/A   Overcast
1:56 PM 37.2 °F - 24.8 °F 61% 30.04 in 10.0 mi Calm Calm - N/A   Overcast
2:18 PM 37.0 °F 34.5 °F 25.5 °F 63% 30.04 in 10.0 mi South 3.5 mph - N/A   Overcast
2:36 PM 37.6 °F - 26.2 °F 64% 30.05 in 10.0 mi Calm Calm - N/A   Overcast
2:56 PM 37.4 °F 33.8 °F 26.6 °F 65% 30.04 in 10.0 mi SW 4.6 mph - N/A   Overcast
3:15 PM 37.4 °F 34.9 °F 26.6 °F 65% 30.05 in 10.0 mi WSW 3.5 mph - N/A   Overcast
3:16 PM 37.6 °F - 26.6 °F 65% 30.05 in 10.0 mi Calm Calm - N/A   Overcast
3:35 PM 37.4 °F 32.1 °F 26.4 °F 65% 30.05 in 10.0 mi SW 6.9 mph - N/A   Overcast
3:57 PM 37.4 °F 34.9 °F 26.4 °F 65% 30.05 in 10.0 mi SW 3.5 mph - N/A   Overcast
4:15 PM 37.0 °F 32.4 °F 26.6 °F 66% 30.05 in 10.0 mi SW 5.8 mph - N/A   Overcast
4:35 PM 37.0 °F 32.4 °F 26.4 °F 65% 30.07 in 10.0 mi SW 5.8 mph - N/A   Overcast
4:55 PM 37.0 °F 31.0 °F 26.2 °F 65% 30.08 in 10.0 mi SW 8.1 mph - N/A   Overcast
4:56 PM 37.0 °F 30.4 °F 26.2 °F 65% 30.08 in 10.0 mi SW 9.2 mph - N/A   Overcast
5:18 PM 36.7 °F 32.0 °F 26.4 °F 66% 30.09 in 10.0 mi SW 5.8 mph - N/A   Overcast
5:36 PM 36.7 °F 32.0 °F 26.4 °F 66% 30.10 in 10.0 mi SSW 5.8 mph - N/A   Overcast
5:56 PM 36.5 °F 31.8 °F 26.6 °F 67% 30.11 in 10.0 mi SSW 5.8 mph - N/A   Overcast
6:15 PM 36.5 °F 31.8 °F 26.6 °F 67% 30.12 in 10.0 mi SSW 5.8 mph - N/A   Overcast
6:16 PM 36.5 °F 31.0 °F 26.6 °F 67% 30.12 in 10.0 mi SSW 6.9 mph - N/A   Overcast
6:35 PM 36.5 °F - 26.6 °F 67% 30.12 in 10.0 mi Calm Calm - N/A   Overcast
6:39 PM 36.5 °F - 26.6 °F 67% 30.12 in 10.0 mi Calm Calm - N/A   Overcast
6:57 PM 36.1 °F 33.5 °F 26.8 °F 69% 30.12 in 10.0 mi SSW 3.5 mph - N/A   Overcast
7:15 PM 35.6 °F 29.9 °F 27.0 °F 71% 30.13 in 10.0 mi North 6.9 mph - N/A   Overcast
7:35 PM 33.6 °F 23.7 °F 28.2 °F 81% 30.14 in 10.0 mi North 15.0 mph 18.4 mph N/A Snow Light Snow
7:55 PM 30.9 °F 18.7 °F 26.8 °F 85% 30.16 in 5.0 mi North 19.6 mph 29.9 mph N/A Snow Light Snow
7:56 PM 30.9 °F 18.4 °F 26.6 °F 84% 30.16 in 7.0 mi North 20.7 mph 29.9 mph N/A Snow Light Snow
8:18 PM 29.3 °F 19.6 °F 25.9 °F 87% 30.17 in 3.0 mi North 11.5 mph 23.0 mph N/A Snow Light Snow
8:36 PM 30.2 °F 20.8 °F 22.1 °F 72% 30.18 in 10.0 mi North 11.5 mph 19.6 mph N/A   Overcast
9:15 PM 30.0 °F 20.0 °F 20.1 °F 67% 30.20 in 10.0 mi NNW 12.7 mph 23.0 mph N/A   Overcast
9:35 PM 29.3 °F 15.3 °F 19.0 °F 66% 30.22 in 10.0 mi North 24.2 mph 35.7 mph N/A   Overcast
9:58 PM 28.9 °F 16.5 °F 14.4 °F 55% 30.25 in 10.0 mi North 18.4 mph 27.6 mph N/A   Overcast
10:15 PM 28.6 °F 17.7 °F 13.6 °F 54% 30.27 in 10.0 mi North 13.8 mph 27.6 mph N/A   Overcast
10:35 PM 27.5 °F 18.0 °F 11.3 °F 51% 30.29 in 10.0 mi North 10.4 mph 19.6 mph N/A   Mostly Cloudy
10:36 PM 27.5 °F 18.6 °F 11.3 °F 51% 30.30 in 10.0 mi North 9.2 mph 19.6 mph N/A   Mostly Cloudy
10:55 PM 26.4 °F 17.3 °F 10.0 °F 50% 30.31 in 10.0 mi NNW 9.2 mph 19.6 mph N/A   Scattered Clouds
10:56 PM 26.2 °F 16.4 °F 10.0 °F 50% 30.31 in 10.0 mi NNW 10.4 mph 19.6 mph N/A   Scattered Clouds
11:19 PM 25.5 °F 16.2 °F 5.5 °F 43% 30.32 in 10.0 mi NNW 9.2 mph 18.4 mph N/A   Clear
11:36 PM 24.6 °F 15.8 °F 5.7 °F 45% 30.33 in 10.0 mi NNW 8.1 mph - N/A   Clear
11:56 PM 23.7 °F 13.3 °F 5.7 °F 46% 30.35 in 10.0 mi NNW 10.4 mph 16.1 mph N/A   Clear